Total_Precipitation_Accumulation
0.00 0.01 0.05 0.12 0.20 0.29 0.29 0.12 0.05 0.04 0.03 0.02 0.02 0.01 0.02 0.02 0.04 0.08 0.02 0.00 0.00 0.00 0.00 0.01 0.01 0.01 0.01 0.01 0.01 0.02 0.02 0.02 0.02 0.01 0.01 0.01 0.00 0.00 0.00 0.01 0.01 0.01 0.02 0.02 0.02 0.02 0.01 0.01 0.01
0.00 0.00 0.03 0.07 0.18 0.27 0.21 0.08 0.04 0.03 0.03 0.03 0.02 0.01 0.00 0.00 0.00 0.00 0.00 0.00 0.00 0.00 0.00 0.00 0.01 0.01 0.01 0.02 0.02 0.02 0.02 0.01 0.01 0.01 0.01 0.00 0.00 0.01 0.01 0.01 0.01 0.01 0.02 0.03 0.03 0.02 0.02 0.01 0.01
0.00 0.00 0.01 0.04 0.09 0.18 0.18 0.07 0.04 0.04 0.04 0.03 0.02 0.01 0.00 0.00 0.00 0.00 0.00 0.00 0.00 0.00 0.00 0.01 0.01 0.02 0.02 0.02 0.02 0.02 0.02 0.02 0.02 0.01 0.01 0.01 0.01 0.01 0.01 0.02 0.02 0.02 0.03 0.04 0.03 0.03 0.02 0.01 0.01
0.00 0.00 0.00 0.01 0.02 0.06 0.10 0.06 0.06 0.08 0.07 0.04 0.03 0.01 0.01 0.01 0.00 0.00 0.00 0.00 0.00 0.00 0.00 0.01 0.01 0.02 0.02 0.02 0.02 0.02 0.02 0.02 0.02 0.02 0.02 0.02 0.02 0.02 0.02 0.03 0.03 0.03 0.05 0.06 0.05 0.04 0.03 0.02 0.01
0.00 0.00 0.00 0.01 0.01 0.02 0.04 0.06 0.14 0.14 0.08 0.07 0.06 0.02 0.01 0.01 0.01 0.00 0.00 0.00 0.00 0.00 0.00 0.01 0.02 0.02 0.02 0.02 0.02 0.03 0.03 0.03 0.03 0.03 0.03 0.02 0.03 0.03 0.04 0.04 0.04 0.04 0.06 0.07 0.08 0.07 0.05 0.03 0.02
0.00 0.00 0.00 0.00 0.01 0.01 0.03 0.08 0.14 0.17 0.09 0.08 0.10 0.07 0.02 0.01 0.01 0.01 0.01 0.00 0.00 0.00 0.01 0.02 0.02 0.03 0.03 0.02 0.03 0.04 0.04 0.04 0.04 0.04 0.03 0.03 0.04 0.05 0.06 0.07 0.06 0.06 0.07 0.09 0.09 0.08 0.08 0.06 0.03
0.00 0.00 0.00 0.00 0.00 0.02 0.04 0.08 0.13 0.13 0.10 0.12 0.16 0.12 0.07 0.03 0.02 0.02 0.01 0.01 0.01 0.01 0.01 0.02 0.03 0.03 0.04 0.05 0.05 0.05 0.05 0.05 0.05 0.05 0.05 0.05 0.05 0.06 0.07 0.08 0.08 0.08 0.09 0.10 0.10 0.10 0.10 0.10 0.07
0.00 0.00 0.00 0.00 0.00 0.01 0.04 0.06 0.08 0.10 0.13 0.13 0.14 0.17 0.15 0.06 0.04 0.04 0.03 0.03 0.03 0.02 0.02 0.03 0.04 0.05 0.05 0.05 0.05 0.06 0.06 0.06 0.06 0.06 0.07 0.07 0.07 0.07 0.07 0.07 0.08 0.09 0.12 0.13 0.15 0.16 0.17 0.16 0.13
0.00 0.00 0.00 0.00 0.00 0.01 0.03 0.04 0.06 0.05 0.08 0.13 0.22 0.29 0.24 0.12 0.07 0.07 0.07 0.08 0.07 0.06 0.05 0.05 0.05 0.06 0.07 0.07 0.09 0.13 0.14 0.15 0.14 0.14 0.14 0.13 0.13 0.14 0.15 0.14 0.18 0.22 0.30 0.34 0.34 0.33 0.36 0.36 0.27
0.00 0.00 0.00 0.00 0.00 0.00 0.01 0.03 0.05 0.06 0.11 0.20 0.21 0.34 0.35 0.19 0.13 0.13 0.15 0.14 0.15 0.15 0.13 0.12 0.12 0.12 0.13 0.13 0.18 0.29 0.32 0.39 0.40 0.42 0.45 0.45 0.40 0.33 0.27 0.30 0.45 0.52 0.68 0.79 0.88 1.00 0.88 0.70 0.52
0.00 0.00 0.00 0.00 0.00 0.00 0.01 0.02 0.03 0.05 0.11 0.17 0.33 0.45 0.32 0.25 0.21 0.24 0.27 0.25 0.27 0.30 0.23 0.20 0.20 0.21 0.24 0.26 0.28 0.37 0.46 0.63 0.72 0.69 0.79 0.88 0.82 0.66 0.54 0.60 0.75 0.84 1.03 1.11 1.40 1.59 1.11 1.01 1.05
0.00 0.00 0.00 0.00 0.00 0.00 0.01 0.01 0.02 0.02 0.03 0.06 0.28 0.50 0.36 0.34 0.31 0.30 0.38 0.39 0.44 0.42 0.37 0.39 0.42 0.38 0.38 0.44 0.48 0.48 0.50 0.57 0.69 0.77 0.88 1.07 1.01 0.90 0.90 0.92 0.89 1.03 1.14 1.41 1.50 1.59 1.59 1.63 1.54
0.00 0.00 0.00 0.00 0.00 0.00 0.01 0.01 0.01 0.03 0.02 0.03 0.08 0.24 0.35 0.35 0.36 0.43 0.51 0.53 0.57 0.60 0.63 0.67 0.70 0.70 0.71 0.73 0.70 0.54 0.52 0.55 0.61 0.75 0.85 1.15 1.36 1.32 1.41 1.23 1.15 1.01 1.26 1.60 1.79 1.84 1.97 2.05 2.01
0.00 0.00 0.00 0.00 0.00 0.00 0.01 0.02 0.03 0.04 0.04 0.04 0.05 0.11 0.22 0.29 0.32 0.41 0.59 0.68 0.68 0.80 0.95 1.01 1.09 1.10 1.06 0.97 0.85 0.75 0.71 0.71 0.74 0.85 1.05 1.51 1.69 1.58 1.64 1.57 1.45 1.22 1.33 1.63 1.97 2.03 2.21 2.14 2.14
0.00 0.00 0.01 0.01 0.01 0.01 0.01 0.03 0.04 0.05 0.06 0.06 0.08 0.09 0.13 0.19 0.29 0.46 0.65 0.76 0.88 1.07 1.29 1.44 1.56 1.48 1.40 1.30 1.12 0.95 0.82 0.77 0.89 1.10 1.31 1.61 1.78 1.86 2.03 1.91 1.58 1.42 1.58 1.75 1.76 1.86 2.30 2.12 2.03
0.00 0.00 0.00 0.01 0.02 0.02 0.03 0.08 0.08 0.07 0.07 0.08 0.10 0.12 0.16 0.22 0.29 0.42 0.58 0.79 1.07 1.41 1.80 2.09 2.20 2.20 2.12 1.82 1.53 1.33 1.23 1.20 1.30 1.40 1.37 1.35 1.52 1.70 1.87 1.61 1.29 1.44 1.71 1.82 1.72 1.72 2.07 2.10 2.06
0.00 0.00 0.02 0.05 0.04 0.03 0.06 0.12 0.12 0.12 0.12 0.13 0.16 0.20 0.24 0.29 0.35 0.47 0.61 0.86 1.27 1.76 2.28 2.75 2.93 2.77 2.53 2.03 1.65 1.38 1.44 1.48 1.48 1.41 1.23 1.09 1.02 1.07 1.19 1.02 0.96 1.19 1.45 1.45 1.27 1.38 1.64 1.72 1.77
0.01 0.02 0.05 0.06 0.07 0.08 0.13 0.19 0.22 0.22 0.23 0.24 0.24 0.26 0.29 0.32 0.40 0.51 0.69 0.92 1.29 1.84 2.41 2.84 3.08 2.79 2.31 1.98 1.80 1.54 1.44 1.39 1.38 1.23 1.02 0.83 0.77 0.75 0.83 0.82 0.78 0.87 0.91 0.92 1.07 1.22 1.36 1.25 1.31
0.01 0.03 0.08 0.07 0.08 0.16 0.23 0.30 0.36 0.38 0.37 0.36 0.32 0.31 0.29 0.30 0.38 0.51 0.75 1.01 1.48 2.15 2.80 3.05 2.85 2.23 1.82 1.57 1.44 1.26 1.11 1.01 0.94 0.87 0.78 0.69 0.69 0.64 0.64 0.61 0.62 0.69 0.68 0.67 0.81 0.93 0.94 0.77 0.92
0.03 0.03 0.09 0.11 0.08 0.08 0.18 0.38 0.47 0.49 0.44 0.35 0.32 0.28 0.24 0.29 0.43 0.71 1.06 1.47 1.91 2.22 2.42 2.36 2.01 1.44 1.10 0.89 0.76 0.62 0.54 0.54 0.54 0.51 0.51 0.53 0.54 0.54 0.53 0.50 0.48 0.48 0.51 0.53 0.57 0.69 0.69 0.61 0.73
0.04 0.04 0.09 0.13 0.08 0.07 0.18 0.46 0.54 0.49 0.43 0.32 0.25 0.24 0.31 0.46 0.80 1.34 1.81 2.01 2.01 1.94 1.68 1.28 0.93 0.67 0.58 0.45 0.37 0.27 0.23 0.23 0.24 0.26 0.29 0.32 0.33 0.33 0.33 0.32 0.32 0.34 0.38 0.42 0.47 0.55 0.57 0.51 0.50
0.05 0.04 0.03 0.04 0.06 0.16 0.29 0.55 0.55 0.51 0.47 0.31 0.31 0.37 0.46 0.66 1.08 1.56 1.85 1.81 1.58 1.28 0.88 0.57 0.44 0.37 0.31 0.26 0.24 0.23 0.18 0.18 0.19 0.20 0.22 0.23 0.22 0.23 0.23 0.21 0.21 0.21 0.25 0.32 0.34 0.43 0.53 0.51 0.42
0.03 0.03 0.02 0.05 0.09 0.14 0.27 0.48 0.63 0.59 0.58 0.31 0.26 0.29 0.40 0.61 0.83 0.92 0.94 0.89 0.72 0.53 0.47 0.43 0.36 0.37 0.35 0.30 0.26 0.24 0.20 0.18 0.19 0.20 0.21 0.24 0.25 0.23 0.23 0.22 0.20 0.21 0.20 0.23 0.28 0.35 0.44 0.51 0.45
0.03 0.03 0.05 0.09 0.14 0.31 0.43 0.54 0.72 0.69 0.59 0.29 0.16 0.20 0.36 0.45 0.47 0.40 0.31 0.26 0.24 0.22 0.23 0.24 0.24 0.33 0.38 0.37 0.31 0.28 0.24 0.21 0.19 0.17 0.18 0.20 0.22 0.25 0.25 0.25 0.26 0.26 0.26 0.25 0.25 0.26 0.32 0.43 0.51
0.03 0.04 0.12 0.30 0.48 0.56 0.39 0.43 0.72 0.72 0.45 0.21 0.10 0.09 0.14 0.25 0.34 0.35 0.31 0.23 0.19 0.15 0.14 0.13 0.13 0.16 0.20 0.23 0.24 0.24 0.24 0.22 0.19 0.17 0.14 0.16 0.17 0.20 0.22 0.23 0.24 0.27 0.29 0.30 0.27 0.27 0.27 0.35 0.44
0.03 0.03 0.07 0.15 0.19 0.27 0.30 0.68 0.86 0.47 0.24 0.12 0.05 0.03 0.08 0.16 0.21 0.24 0.22 0.18 0.14 0.10 0.08 0.06 0.06 0.07 0.07 0.08 0.10 0.12 0.15 0.16 0.18 0.21 0.17 0.16 0.18 0.19 0.20 0.20 0.19 0.21 0.26 0.31 0.33 0.31 0.32 0.35 0.36
0.03 0.02 0.02 0.03 0.05 0.14 0.32 0.61 0.52 0.26 0.18 0.07 0.03 0.02 0.04 0.08 0.10 0.10 0.09 0.07 0.06 0.05 0.05 0.04 0.03 0.03 0.03 0.03 0.05 0.06 0.09 0.13 0.15 0.17 0.17 0.17 0.21 0.21 0.20 0.20 0.20 0.21 0.23 0.26 0.30 0.31 0.33 0.36 0.37
0.03 0.02 0.02 0.02 0.04 0.07 0.20 0.50 0.53 0.28 0.15 0.04 0.02 0.02 0.03 0.05 0.06 0.06 0.05 0.04 0.03 0.02 0.02 0.02 0.02 0.02 0.01 0.01 0.02 0.02 0.04 0.07 0.10 0.10 0.12 0.14 0.16 0.18 0.19 0.19 0.18 0.19 0.20 0.22 0.24 0.27 0.34 0.40 0.45
0.03 0.02 0.02 0.02 0.03 0.03 0.08 0.22 0.19 0.13 0.06 0.02 0.01 0.01 0.02 0.03 0.03 0.03 0.02 0.02 0.02 0.01 0.01 0.02 0.02 0.02 0.02 0.01 0.01 0.01 0.03 0.04 0.06 0.10 0.13 0.14 0.13 0.12 0.13 0.15 0.17 0.18 0.20 0.23 0.28 0.32 0.36 0.47 0.58
0.02 0.02 0.03 0.03 0.02 0.01 0.02 0.08 0.07 0.06 0.03 0.01 0.00 0.00 0.00 0.00 0.01 0.01 0.01 0.01 0.01 0.01 0.01 0.02 0.02 0.02 0.02 0.02 0.02 0.01 0.01 0.02 0.04 0.07 0.10 0.11 0.12 0.12 0.12 0.12 0.13 0.13 0.14 0.19 0.29 0.40 0.42 0.45 0.53